• Processing (Info)

  • MPEC 2005-V90 : COMET P/2005 S3 (READ)

    The following Minor Planet Electronic Circular may be linked-to from your own Web pages, but must not otherwise be redistributed electronically.

    A form allowing access to any MPEC is at the bottom of this page.


    Read MPEC 2005-V89 Read MPEC 2005-V91


    M.P.E.C. 2005-V90                                Issued 2005 Nov. 14, 20:37 UT
    
         The Minor Planet Electronic Circulars contain information on unusual
             minor planets and routine data on comets.  They are published
       on behalf of Commission 20 of the International Astronomical Union by the
              Minor Planet Center, Smithsonian Astrophysical Observatory,
                              Cambridge, MA 02138, U.S.A.
    
                      Supported in part by the Brinson Foundation
                      Supported in part by the TABASGO Foundation
                 Prepared using the Tamkin Foundation Computer Network
    
                                  MPC@CFA.HARVARD.EDU
              URL http://cfa-www.harvard.edu/iau/mpc.html  ISSN 1523-6714
    
                                COMET P/2005 S3 (READ)
    
    Observations:
        PK05S030  C2005 10 12.04870 02 22 45.98 +18 58 48.8          19.3 T EV090152
        PK05S030  C2005 10 12.05044 02 22 45.91 +18 58 48.5          19.3 T EV090152
        PK05S030  C2005 10 12.84513 02 22 22.16 +18 56 53.5          19.1 T EV090152
        PK05S030  C2005 10 12.84689 02 22 22.06 +18 56 53.2          19.1 T EV090152
        PK05S030  C2005 10 12.84851 02 22 22.02 +18 56 53.0          19.1 T EV090152
        PK05S030  C2005 11 05.89014 02 08 04.04 +17 33 04.2                 EV090J97
        PK05S030  C2005 11 08.78392 02 06 21.88 +17 21 04.2          18.4 N EV090104
        PK05S030  C2005 11 08.80038 02 06 21.33 +17 21 00.5          18.2 N EV090104
        PK05S030  C2005 11 08.81209 02 06 20.94 +17 20 57.7          18.0 N EV090104
        PK05S030  C2005 11 09.02293 02 06 13.31 +17 20 03.5          17.6 N EV090A32
        PK05S030  C2005 11 09.02910 02 06 13.19 +17 20 02.8          17.9 N EV090A32
        PK05S030  C2005 11 09.03582 02 06 12.93 +17 20 00.9          17.7 N EV090A32
        PK05S030  C2005 11 13.23299 02 03 54.23 +17 02 41.4          18.6 T EV090673
        PK05S030  C2005 11 13.23762 02 03 54.07 +17 02 40.4                 EV090673
        PK05S030  C2005 11 13.24352 02 03 53.87 +17 02 39.2                 EV090673
        PK05S030  C2005 11 13.25081 02 03 53.63 +17 02 37.4                 EV090673
    
    Observer details:
    104 San Marcello Pistoiese.  Observers L. Tesi, M. Tombelli, G. Fagioli.
        Measurers G. Forti, L. Tesi, M. Tombelli.  0.60-m f/4 reflector + CCD.
    152 Moletai Astronomical Observatory.  Observers K. Cernis, J. Zdanavicius.
        Measurer K. Cernis.  1.65-m f/3.1 reflector + CCD.
    673 Table Mountain Observatory, Wrightwood.  Observer J. Young.  0.6-m f/16
        Cassegrain + CCD.
    A32 Panker.  Observer H. Denzau.  0.36-m f/5.5 Schmidt-Cassegrain + CCD.
    J97 Alginet.  Observer T. Climent.  0.25-m f/3.3 Schmidt-Cassegrain + CCD.
    
    Orbital elements:
        P/2005 S3 (Read)
    Epoch 2006 Jan. 25.0 TT = JDT 2453760.5
    T 2006 Jan. 8.57032 TT                                  MPC
    q   2.8424383            (2000.0)            P               Q
    n   0.09081348     Peri.  140.45737     +0.58777533     -0.80675378
    a   4.9019534      Node   273.46036     +0.72605186     +0.55903935
    e   0.4201417      Incl.    3.47877     +0.35688774     +0.19137225
    P  10.85
    Residuals in seconds of arc
    050930 691  0.0   0.0     051006 A32  0.3-  0.2-    051031 A32  0.1-  0.3-
    050930 691  0.1+  0.4+    051007 704  0.7+  0.1-    051031 349  0.6+  0.2+
    050930 691  0.3-  0.1-    051007 704  0.2+  0.1-    051031 349  0.5+  0.1+
    050930 A50 (4.5-  0.8-)   051007 704  0.0   0.4+    051031 349  0.5+  0.3+
    050930 A50  1.5+  0.3+    051008 A32  0.3-  0.9+    051031 213  0.4+  0.2-
    050930 A50 (3.0+  1.3+)   051008 A32  0.5-  0.0     051031 213  0.4+  0.3-
    050930 118  0.5+  0.1+    051008 A32  0.6-  0.8-    051031 213  0.2+  0.1-
    050930 118  0.1-  0.4-    051010 691  1.0-  0.1+    051101 704  0.2-  0.4+
    050930 J87  0.2+  0.0     051010 691  0.3-  0.2+    051101 704  0.2-  0.0
    050930 J87  0.2+  0.0     051010 691  0.3-  0.2+    051101 704  0.2+  0.1+
    050930 J87  0.3+  0.2-    051010 A32  0.1-  0.1+    051101 704  0.1-  0.2-
    051001 J95  0.2+  0.1-    051010 A32  0.4-  0.3-    051101 704  0.3+  0.4-
    051001 J95  0.3+  0.0     051012 152  0.1-  0.2+    051102 A30  0.2+  0.0
    051001 J95  0.1+  0.2-    051012 152  0.3-  0.1+    051102 A30  0.2+  0.2+
    051001 J95  0.5+  0.0     051012 704 (2.5+  1.3+)   051102 A30  0.3+  0.5+
    051001 291  0.4-  0.1+    051012 704  1.4+  0.6-    051103 G96  0.6-  0.4-
    051001 291  0.8-  0.0     051012 704  0.3+  0.4+    051103 G96  0.3-  0.4-
    051001 291  0.6-  0.0     051012 704  0.1-  0.5+    051103 G96  0.1+  0.2-
    051001 651  0.5+  0.2+    051012 854  0.9-  0.3+    051103 G96  0.5-  0.3-
    051001 651  0.1-  0.1-    051012 854  0.2+  0.7+    051104 704  0.9+  0.3+
    051001 G96  0.7+  0.1+    051012 854 (2.8-  1.0-)   051104 704  0.2+  0.7+
    051001 651  0.1-  0.6+    051012 152  0.8+  0.3+    051104 704  0.4+  0.1+
    051001 G96  0.7+  0.0     051012 152  0.1+  0.2+    051104 704  0.9-  1.0+
    051001 G96  0.5+  0.0     051012 152  0.3+  0.3+    051104 704  0.3+  1.1+
    051001 G96  0.9+  0.0     051013 854  0.2-  2.0+    051104 704  0.6+  0.3+
    051001 699  1.8-  0.0     051013 854  0.0   0.5-    051104 704  0.6-  0.1+
    051001 673  0.6+  0.6+    051013 854  0.8-  1.0-    051104 704  0.5-  0.1+
    051001 673  0.7+  0.6+    051013 854  0.5-  1.3+    051104 G96  1.0-  0.7-
    051001 699  1.1-  0.4+    051014 854  0.8-  0.6+    051104 704  0.6+  0.1+
    051001 673  0.8+  0.6+    051014 854 (2.4-  0.6-)   051104 G96  1.7-  0.9-
    051001 673  0.6+  0.7+    051016 118  0.3+  0.1-    051104 704  0.3+  0.2+
    051001 699  0.1+  0.2-    051016 118  0.3-  0.2-    051104 704  0.9-  0.2+
    051001 699  0.2+  0.9+    051016 118  0.1+  0.3+    051104 G96  1.3-  0.7-
    051001 A50  0.1+  0.8-    051020 673  1.0+  0.3+    051104 704  0.1+  0.0
    051001 A50  0.2-  0.3-    051020 673  0.7+  0.2+    051104 G96  1.5-  0.7-
    051001 A50 (2.9-  0.5+)   051020 673  1.1+  0.2+    051104 704  0.2+  0.8+
    051001 A50  0.5-  0.2+    051020 673  1.0+  0.2+    051104 704  0.6-  0.1-
    051001 A50  0.1-  0.0     051021 673  0.6+  0.3+    051104 704  0.4+  0.3-
    051001 J87  0.2-  0.2-    051021 673  0.8+  0.3+    051105 699  0.1-  0.2-
    051001 J87  1.2-  0.5-    051021 673  1.1+  0.3+    051105 704  1.0+  0.3+
    051001 J87  1.4-  0.5-    051021 673  0.2+  0.3+    051105 699  0.7-  0.5-
    051002 941  0.2-  0.1-    051023 644  0.2+  0.2+    051105 704  0.2+  0.5-
    051002 941  0.2-  0.1-    051023 644  0.4+  0.2+    051105 704  0.1+  0.2-
    051002 941  0.4-  0.1+    051023 644  0.4+  0.2+    051105 699  0.0   0.7-
    051002 941  0.6-  0.2+    051023 703  0.1+  1.1+    051105 704  0.3-  0.3-
    051002 850  1.4+  1.1+    051023 703  0.5+  0.4+    051105 704  0.4-  0.0
    051002 673  0.4+  0.3+    051023 703  0.6-  0.7-    051105 699  1.5-  0.8-
    051002 850  1.0-  0.5-    051023 703  0.5-  0.1+    051105 J97  0.9+  0.8-
    051002 673  0.8+  0.3+    051024 699  1.9-  0.1-    051106 704  0.5+  0.5+
    051002 673  0.7+  0.3+    051024 699  0.7-  1.1-    051106 704  0.6+  0.1+
    051002 673  0.7+  0.2+    051024 699  0.0   0.1+    051106 704  0.7+  0.2-
    051002 850  1.2-  0.0     051024 699  0.2-  0.6-    051106 704  0.8+  0.5+
    051004 850  0.4+  0.2-    051025 A79  0.4-  0.5-    051106 704  0.7+  0.0
    051004 850  0.2-  1.0-    051025 A79  0.0   0.2-    051106 704  0.8+  0.5+
    051004 850  0.6-  0.3-    051025 A79  0.5+  0.6+    051106 704  0.3+  0.4+
    051004 850  1.9-  0.2+    051026 215  0.4+  0.2-    051106 704  0.5+  0.3+
    051004 118  1.4+  0.2-    051026 215  0.3+  0.4-    051106 704  0.7+  0.2-
    051004 118  0.2+  0.2+    051029 A32  0.5-  0.4-    051106 704  0.4+  0.2-
    051004 A32  0.1+  0.8+    051029 A32  0.3-  0.2-    051107 J76  0.1-  0.3+
    051004 A32  0.1-  0.0     051029 A32  0.1-  0.1+    051107 J76  0.4-  0.5+
    051005 850  0.4-  0.9-    051029 703  0.3-  0.4-    051107 J76  0.3+  0.2+
    051005 850  1.0-  1.0-    051029 703 (3.2-  1.5-)   051108 104  0.5-  0.1+
    051005 850  0.0   0.6-    051029 442  0.5-  0.1+    051108 104  0.0   0.5+
    051005 850  1.9-  1.1-    051030 A79  0.2+  0.2+    051108 104  0.4+  0.5+
    051005 A32  0.3+  0.1+    051030 A79  0.4+  0.6+    051109 A32  1.0-  0.5-
    051005 A32  0.2+  0.1-    051030 A79  0.9+  0.2+    051109 A32  0.4+  0.4+
    051006 213  0.8+  0.8+    051030 224  0.3-  0.1-    051109 A32  0.1+  0.1+
    051006 213  0.5+  0.8+    051030 224  0.2+  0.1-    051113 673  0.3+  0.2+
    051006 213  0.3+  0.7+    051030 224  1.0+  0.2+    051113 673  0.2+  0.3+
    051006 213  0.5+  0.7+    051031 A32  0.1-  0.0     051113 673  0.1+  0.5+
    051006 A32  0.1-  0.0     051031 A32  0.2+  0.1-    051113 673  0.2+  0.5+
    
    Brian G. Marsden             (C) Copyright 2005 MPC           M.P.E.C. 2005-V90
    

    Read MPEC 2005-V89 Read MPEC 2005-V91


    MPEC number:

    Enter an MPEC number in one of the following forms:

    • 1997-B01 (the full form)
    • J97B01 (the packed version of the full form)
    • B01 (the abbreviated form)